Flag for U.S.A. Weather past 2 weeks in Rockford, Illinois, U.S.A.

Now
13 °F

Passing clouds.


Feels Like: 1 °F
Forecast: -11 / 19 °F
Wind: 8 mph from Southeast

Location: Greater Rockford Airport

Current Time: Feb 28, 2015 at 12:31:37 PM

Latest Report: Feb 28, 2015 at 11:54 AM


Visibility: 10 mi

Pressure: 30.73 "Hg

Humidity: 59%

Dew point: 1 °F

Location of RockfordLocation

Historic Weather in Rockford — Graph

°F

Rockford temperature yesterday

Maximum temperature yesterday: 12 °F (at 1:54 PM)
Minimum temperature yesterday: -14 °F (at 5:54 AM)
Average temperature yesterday: 0 °F

Past Weeks' High & Low Weather Summary

 TemperatureHumidityPressure
High32 °F (Feb 24, 3:54 PM)84% (Feb 25, 6:54 PM)30.81 "Hg (Feb 25, 6:54 PM)
Low-15 °F (Feb 28, 5:54 AM)37% (Feb 14, 3:54 PM)29.72 "Hg (Feb 24, 3:54 PM)
Average10 °F61%30.27 "Hg
* Reported Feb 13 10:54 AM — Feb 28 10:54 AM, Rockford, Weather by CustomWeather, © 2015

Note: Actual official high and low records may vary slightly from our data, if they occured in-between our weather recording intervals... More about our weather records

Advertising

Rockford weather history for previous 24 hours

 ConditionsComfort  
Time TempWeatherWind HumidityBarometerVisibility
10:54 AM
Sat, Feb 28
10 °FSunny.7 mph58%30.76 "Hg10 mi
9:54 AM6 °FSunny.3 mph66%30.76 "Hg10 mi
8:54 AM-2 °FSunny.No wind72%30.78 "Hg10 mi
7:54 AM-11 °FSunny.No wind74%30.77 "Hg10 mi
6:54 AM-14 °FSunny.No wind71%30.76 "Hg9 mi
5:54 AM-15 °FClear.No wind70%30.76 "Hg10 mi
4:54 AM-14 °FClear.No wind74%30.74 "Hg10 mi
3:54 AM-13 °FClear.No wind70%30.72 "Hg10 mi
2:54 AM-13 °FClear.No wind74%30.72 "Hg10 mi
1:54 AM-11 °FClear.No wind74%30.73 "Hg10 mi
12:54 AM-7 °FClear.3 mph71%30.73 "Hg10 mi
11:54 PM
Fri, Feb 27
-7 °FClear.3 mph75%30.73 "Hg10 mi
10:54 PM-5 °FClear.3 mph75%30.73 "Hg10 mi
9:54 PM-1 °FClear.No wind68%30.72 "Hg10 mi
8:54 PM0 °FClear.No wind65%30.71 "Hg10 mi
7:54 PM2 °FClear.3 mph65%30.71 "Hg10 mi
6:54 PM4 °FClear.6 mph60%30.70 "Hg10 mi
5:54 PM9 °FClear.6 mph50%30.68 "Hg10 mi
4:54 PM11 °FSunny.5 mph48%30.66 "Hg10 mi
3:54 PM12 °FSunny.6 mph46%30.66 "Hg10 mi
2:54 PM12 °FSunny.8 mph46%30.67 "Hg10 mi
1:54 PM12 °FSunny.6 mph46%30.67 "Hg10 mi
12:54 PM11 °FSunny.12 mph46%30.68 "Hg10 mi
Weather by CustomWeather, © 2015

See weather overviewHow to use our weather pages